Regional Weather Roundup
Issued by NWS

Home | Current Version | Previous Version | Graphics & Text | Print | Product List | Glossary On
Versions: 1 2 3 4 5 6 7 8 9 10 11 12 13 14 15 16 17 18 19 20 21 22 23 24 25 26 27 28 29 30 31 32 33 34 35 36 37 38 39 40 41 42 43 44 45 46 47 48 49 50
000
ASUS43 KOAX 061502
RWRNE

WEATHER ROUNDUP FOR NEBRASKA
NATIONAL WEATHER SERVICE OMAHA NE
1000 AM CDT FRI MAY 06 2016

NOTES: SATELLITE DATA IS BEING USED TO AUGMENT CLOUD COVER ABOVE
       12000 FEET.
       "FAIR" INDICATES FEW OR NO CLOUDS BELOW 12,000 FEET WITH NO
       SIGNIFICANT WEATHER AND/OR OBSTRUCTIONS TO VISIBILITY.

  * THESE STATIONS DO NOT REPORT WEATHER SUCH AS RAIN...SNOW OR FOG.

NEZ001>004-019>022-054>056-061600-
NEBRASKA PANHANDLE

CITY           SKY/WX    TMP DP  RH WIND       PRES   REMARKS
SCOTTSBLUFF    MOSUNNY   63  47  55 SE12      29.95S
ALLIANCE       CLOUDY    62  48  60 SE10      29.96S
CHADRON        MOSUNNY   66  50  56 CALM      29.92S
KIMBALL        CLOUDY    64  48  57 S7        29.99S
SIDNEY         CLOUDY    63  48  58 S8        29.98S
$$

NEZ057>060-069>072-079>082-061600-
SOUTHWEST NEBRASKA

CITY           SKY/WX    TMP DP  RH WIND       PRES   REMARKS
NORTH PLATTE   MOSUNNY   68  49  50 SW14G21   29.98F
IMPERIAL       CLOUDY    64  47  53 S16       29.98F
MCCOOK         SUNNY     69  50  50 S18G32    29.98F
$$

NEZ005>010-023>029-035>040-094-061600-
NORTH CENTRAL NEBRASKA

CITY           SKY/WX    TMP DP  RH WIND       PRES   REMARKS
VALENTINE      SUNNY     73  47  39 SW18G26   29.93F
AINSWORTH      SUNNY     72  48  43 SW21G26   29.94F
BROKEN BOW     MOSUNNY   70  49  47 SW15      29.99F
ORD            SUNNY     69  49  48 SW17G25   29.97F
$$

NEZ041-046>049-061>064-073>077-083>087-061600-
SOUTH CENTRAL NEBRASKA

CITY           SKY/WX    TMP DP  RH WIND       PRES   REMARKS
GRAND ISLAND   SUNNY     72  45  37 SW23G33   30.01S
AURORA         SUNNY     72  45  36 SW18      30.01F
HASTINGS       SUNNY     71  46  40 S12G22    30.02S
KEARNEY *      CLOUDY    72  46  40 S22G28    30.02S
YORK           SUNNY     73  45  35 SW14      30.02F
$$

NEZ011>018-030>034-042>045-061600-
NORTHEAST NEBRASKA

CITY           SKY/WX    TMP DP  RH WIND       PRES   REMARKS
NORFOLK        SUNNY     73  45  36 SW20      29.97S
ALBION         SUNNY     70  47  42 SW17G23   29.99S
BLAIR          SUNNY     71  46  40 SW17      30.01S
COLUMBUS *     SUNNY     72  46  40 SW14      30.01F
FREMONT        SUNNY     73  46  38 SW12      30.01S
TEKAMAH        SUNNY     73  48  41 SW15      29.99F
$$

NEZ050>053-065>068-078-088>093-061600-
SOUTHEAST NEBRASKA

CITY           SKY/WX    TMP DP  RH WIND       PRES   REMARKS
LINCOLN        SUNNY     76  44  32 SW14      30.03S
OMAHA EPPLEY   MOSUNNY   72  48  42 S8        30.01
BEATRICE       SUNNY     72  47  41 SW13      30.04F
FALLS CITY     SUNNY     72  49  44 SW13      30.05
$$

NEZ044-045-051>053-067-061600-
OMAHA AREA

CITY           SKY/WX    TMP DP  RH WIND       PRES   REMARKS
OMAHA EPPLEY   MOSUNNY   72  48  42 S8        30.01
BLAIR          SUNNY     71  46  40 SW17      30.01S
FREMONT        SUNNY     73  46  38 SW12      30.01S
OFFUTT AFB     SUNNY     70  52  52 S5        30.01F
$$




USA.gov is the U.S. government's official web portal to all federal, state and local government web resources and services.